Location: Crocus Hill
(18.2167°N, 63.0667°W)
Time: 01:08:51
(UTC+00:00)

SL-16 R/B - Pass Details

Date: 26 January 2020
Orbit: 842 x 846 km, 71.0° (Epoch: 19 February)

Event Time Altitude Azimuth Distance (km) Brightness Sun altitude
Exits shadow 08:10:25 30° 70° (ENE) 1,452 3.7 -36.7°
Drops below altitude 10° 08:13:56 10° 38° (NE) 2,459 4.9 -35.9°
Sets 08:16:33 0° 30° (NNE) 3,396 5.6 -35.3°
